This is the latest recevied weather packets stored in our database for station/object AC8JV. If no packets are shown the sender has not sent any weather packets the latest 10 day(s).
| Time | Temp. | Humidity | Pressure | Rain* | Wind** | Luminosity | Snow |
|---|---|---|---|---|---|---|---|
| 1777846814 | 12.78° C | 61% | 1009.4 hPa | 0 mm | - | - | - |
| 1777846201 | 12.78° C | 62% | 1009.7 hPa | 0 mm | - | - | - |
| 1777845610 | 12.78° C | 64% | 1009.6 hPa | 0 mm | - | - | - |
| 1777845008 | 12.22° C | 63% | 1009.8 hPa | 0 mm | - | - | - |
| 1777844403 | 12.22° C | 64% | 1009.9 hPa | 0 mm | - | - | - |
| 1777843819 | 11.67° C | 64% | 1009.8 hPa | 0 mm | - | - | - |
| 1777843205 | 11.67° C | 63% | 1009.9 hPa | 0 mm | - | - | - |
| 1777842618 | 12.22° C | 64% | 1010 hPa | 0 mm | - | - | - |
| 1777842003 | 11.67° C | 65% | 1010 hPa | 0 mm | - | - | - |
| 1777841401 | 11.67° C | 64% | 1010.1 hPa | 0 mm | - | - | - |
| 1777840835 | 11.67° C | 65% | 1010.3 hPa | 0 mm | - | - | - |
| 1777840207 | 11.67° C | 64% | 1010.5 hPa | 0 mm | - | - | - |
| 1777839600 | 11.67° C | 64% | 1010.8 hPa | 0 mm | - | - | - |
| 1777838998 | 11.67° C | 63% | 1011.1 hPa | 0 mm | - | - | - |
| 1777838401 | 11.67° C | 63% | 1011.3 hPa | 0 mm | - | - | - |
| 1777837805 | 12.22° C | 60% | 1011.4 hPa | 0 mm | - | - | - |
| 1777837211 | 12.78° C | 57% | 1011.5 hPa | 0 mm | - | - | - |
| 1777836603 | 13.33° C | 56% | 1011.7 hPa | 0 mm | - | - | - |
| 1777836002 | 13.89° C | 53% | 1011.6 hPa | 0 mm | - | - | - |
| 1777835400 | 14.44° C | 53% | 1011.7 hPa | 0 mm | - | - | - |
| 1777834802 | 14.44° C | 51% | 1011.6 hPa | 0 mm | - | - | - |
| 1777834219 | 15° C | 50% | 1011.6 hPa | 0 mm | - | - | - |
| 1777833607 | 15.56° C | 49% | 1011.6 hPa | 0 mm | - | - | - |
| 1777833011 | 15.56° C | 50% | 1011.8 hPa | 0 mm | - | - | - |
| 1777832418 | 15.56° C | 47% | 1011.8 hPa | 0 mm | - | - | - |
* Rain latest hour (hover to see other rain measurements)
** Current wind speed in m/s (hover to see current wind gust speed)